Regional Weather Roundup
Issued by NWS Upton, NY

Current Version | Previous Version | Text Only | Print | Product List | Glossary On
Versions: 1 2 3 4 5 6 7 8 9 10 11 12 13 14 15 16 17 18 19 20 21 22 23 24 25 26 27 28 29 30 31 32 33 34 35 36 37 38 39 40 41 42 43 44 45 46 47 48 49 50
000 ASUS41 KOKX 051404 RWROKX REGIONAL WEATHER ROUNDUP NATIONAL WEATHER SERVICE NEW YORK NY 900 AM EST FRI FEB 05 2016 NOTE: "FAIR" INDICATES FEW OR NO CLOUDS BELOW 12,000 FEET WITH NO SIGNIFICANT WEATHER AND/OR OBSTRUCTIONS TO VISIBILITY. NYZ071-072-176-178-NJZ106-104-051500- NEW YORK CITY METRO AREA CITY SKY/WX TMP DP RH WIND PRES REMARKS CENTRAL PARK SNOW 31 29 92 NE8G20 30.10S VSB 1/4 WCI 23 LAGUARDIA APRT LGT SNOW 32 28 85 N22G32 30.08R VSB 1 WCI 19 KENNEDY INTL LGT SNOW 32 30 92 N21G33 30.10S VSB 3/4 WCI 20 NEWARK/LIBERTY LGT SNOW 32 31 96 N14 30.10R VSB 3/4 WCI 22 BRNX BOT. GARD N/A 32 32 100 NW7 30.07F WCI 26 TETERBORO HVY SNOW 31 28 89 N9 30.10R VSB 1/4 WCI 23 $$ NYZ177-179-078>081-051500- LONG ISLAND NEW YORK CITY SKY/WX TMP DP RH WIND PRES REMARKS FARMINGDALE SNOW 32 30 92 N18G30 30.07R VSB 1/2 WCI 20 ISLIP LGT SNOW 33 31 92 N21G28 30.00F VSB 3/4 WCI 21 SHIRLEY HVY SNOW 33 32 96 N17G24 30.03F VSB 1/4 WCI 22 RIVERHEAD N/A 32 30 93 CALM 30.05F WESTHAMPTON SNOW 33 31 92 N21G28 30.00F VSB 1/2 WCI 21 EAST HAMPTON NOT AVBL MONTAUK POINT N/A 34 34 100 N13G30 29.99F WCI 25 $$ NYZ052-065-067-051500- HUDSON VALLEY CITY SKY/WX TMP DP RH WIND PRES REMARKS WHITE PLAINS SNOW 30 27 88 N18G25 30.07F VSB 1/2 WCI 18 NEWBURGH NOT AVBL MONTGOMERY CLOUDY 36 20 52 N14 30.06F WCI 27 POUGHKEEPSIE LGT SNOW 33 26 75 NE9 30.08F WCI 25 ALBANY CLOUDY 34 21 59 N7 30.14S WCI 28 $$ NJZ001-105-106-008-010-013-015-019>022-104-051500- NEW JERSEY CITY SKY/WX TMP DP RH WIND PRES REMARKS NEWARK/LIBERTY LGT SNOW 32 31 96 N14 30.10R VSB 3/4 WCI 22 TETERBORO HVY SNOW 31 28 89 N9 30.10R VSB 1/4 WCI 23 CALDWELL LGT SNOW 32 28 85 VRB5 30.11R FOG WCI 27 MORRISTOWN LGT SNOW 32 32 100 NE8G17 30.13R VSB 1 WCI 25 SOMERVILLE CLOUDY 33 30 88 N3 30.11R SUSSEX CLOUDY 33 26 75 NE5 30.08F WCI 29 ANDOVER N/A 32 25 75 NE5 30.10R WCI 27 TRENTON LGT SNOW 33 30 88 N13 30.11R FOG WCI 24 MILLVILLE LGT SNOW 33 32 96 NW9 30.15R VSB 1 WCI 25 ATLANTIC CITY HVY SNOW 33 32 96 NW13 30.09R VSB 1/4 WCI 24 WRIGHTSTOWN LGT SNOW 32 32 100 N21 30.05S VSB 1 WCI 20 TOMS RIVER CLOUDY 32 28 86 N10G23 30.08R WCI 24 BELMAR CLOUDY 32 25 74 N23G31 30.07S WCI 19 $$ PAZ047>061-062-071-051500- EASTERN PENNSYLVANIA CITY SKY/WX TMP DP RH WIND PRES REMARKS PHILADELPHIA CLOUDY 36 31 81 N12 30.14R WCI 28 ALLENTOWN CLOUDY 37 22 54 N8 30.11R WCI 31 SCRANTON CLOUDY 33 22 63 N10G20 30.13R WCI 25 $$ CTZ002-004>006-009-010-012-RIZ004-006-007-MAZ004-011-015-051500- SOUTHERN NEW ENGLAND IN CT CITY SKY/WX TMP DP RH WIND PRES REMARKS BRADLEY INTL HVY SNOW 32 30 92 N15G23 30.05F VSB 1/4 WCI 22 HARTFORD HVY SNOW 33 31 92 N10 30.07F VSB 1/4 WCI 25 DANBURY HVY SNOW 30 25 81 N15G24 30.07F VSB 1/4 WCI 19 WTRBRY/OXFORD SNOW 30 21 69 N17G23 30.01F VSB 1/2 WCI 18 BRIDGEPORT SNOW 33 31 92 N12G20 30.05F VSB 1/2 WCI 24 MERIDEN SNOW 33 31 92 N8 30.03F VSB 1/2 WCI 26 NEW HAVEN SNOW 33 31 92 N13 30.03F VSB 1/2 WCI 24 CHESTER CLOUDY 32 32 100 CALM 30.01F VSB<1/4 GROTON LGT SNOW 33 33 100 N15G23 30.00S VSB 3/4 WCI 23 WILLIMANTIC HVY SNOW 34 31 88 N8 30.04F VSB 1/4 WCI 27 IN RI CITY SKY/WX TMP DP RH WIND PRES REMARKS PROVIDENCE LGT SNOW 33 31 92 N17 30.00F VSB 3/4 WCI 22 BLOCK ISLAND CLOUDY 34 34 100 N16G23 29.96R WCI 23 WESTERLY LGT SNOW 33 32 96 N13 30.01R VSB 1 WCI 24 IN MA CITY SKY/WX TMP DP RH WIND PRES REMARKS BOSTON LGT SNOW 33 31 92 N12 30.07R VSB 3/4 WCI 24 WORCESTER HVY SNOW 30 28 92 N16G22 30.01S VSB 1/4 WCI 19 WESTFIELD SNOW 32 30 92 N13 30.06F VSB 1/2 WCI 22 PROVINCETOWN MIX PCPN 35 34 96 N25G35 29.99R FOG WCI 23 NANTUCKET RAIN 43 41 93 W14G45 29.93R FOG $$ ANZ330-335-338-340-345-350-353-355-051500- COASTAL MARINE OBSERVATIONS STATION/POSITION TIME SKY/WX TEMP WIND PRES VSBY WAVE AIR SEA DIR/SP/G HT/PER (UTC) (F) (DEG/KT/KT) (MB) (MI) (FT/S) NY HARB ENTRANCE 1250 35 44 360/ 25/ 31 1017.1 5/ 5 4S FIRE IS NOT AVBL 20S FIRE ISLAND 1250 34 45 350/ 29/ 37 1014.8 7/ 5 GREAT SOUTH BAY NOT AVBL 23SW MTP 1350 35 45 350/ 27/ 33 1013.4 7/ 5 HUDSON CANYON 1250 40 51 1012.6 10/ 7 KINGS POINT 1306 32 39 40/ 21/ 26 1018.0 EXECUTION ROCKS NOT AVBL CENTRAL LI SOUND NOT AVBL EASTERN LI SOUND 1315 35 42 340/ 17/ 23 N/A ROBBINS REEF 1306 31 20/ 24/ 30 1017.5 $$ >>>>>>>>>>>>>>>>>>>>>>>>>>>> KEY <<<<<<<<<<<<<<<<<<<<<<<<<<< > < > SKY/WX - SKY CONDITION/PRESENT WEATHER < > TMP - TEMPERATURE IN FAHRENHEIT < > DP - DEWPOINT IN FAHRENHEIT < > RH - RELATIVE HUMIDITY IN PERCENT < > WIND - DIRECTION AND SPEED IN MPH < > PRES - MEAN SEA LEVEL PRESSURE IN INCHES OF HG < > WCI - WIND CHILL INDEX < > VSB - VISIBILITY IN MILES < > HX - HEAT INDEX < > TC - TEMPERATURE IN CELSIUS < > VRB - VARIABLE WIND DIRECTION < > < >>>>>>>>>>>>>>>>>>>>>>>>>>>> KEY <<<<<<<<<<<<<<<<<<<<<<<<<<<

USA.gov is the U.S. government's official web portal to all federal, state and local government web resources and services.